ANA762 RJCH-RJAA

Flight info

Callsign ANA762
Flight time N/A
Altitude 36000
Route TSUGA2 UWE DCT SWAMP SWAMPG
Aircraft B764/H-SDE3FGHIM3RWXY/LB1

Departure

Time N/A
Airport Hakodate Airport (RJCH)

Arrival

Time 2026-05-06 11:55
Airport Narita International Airport (RJAA)
Time Latitude Longitude Altitude Speed Heading
2026-05-06 11:33 36.27000 140.60826 12746 ft 386 kts 138°
2026-05-06 11:33 36.25108 140.63211 12138 ft 380 kts 136°
2026-05-06 11:33 36.23289 140.65547 11542 ft 377 kts 136°
2026-05-06 11:33 36.21553 140.67824 11354 ft 349 kts 136°
2026-05-06 11:34 36.19950 140.69930 11297 ft 322 kts 136°
2026-05-06 11:34 36.18489 140.71860 11250 ft 298 kts 137°
2026-05-06 11:34 36.17113 140.73675 11201 ft 277 kts 136°
2026-05-06 11:34 36.16264 140.74797 11165 ft 265 kts 137°
2026-05-06 11:35 36.15912 140.75262 11144 ft 262 kts 137°
2026-05-06 11:36 36.09642 140.81781 10036 ft 247 kts 153°
2026-05-06 11:36 36.08170 140.82886 9792 ft 246 kts 153°
2026-05-06 11:36 36.06707 140.83975 9510 ft 246 kts 153°
2026-05-06 11:36 36.05244 140.85063 9294 ft 244 kts 153°
2026-05-06 11:38 35.96502 140.90771 8975 ft 242 kts 163°
2026-05-06 11:38 35.94920 140.91502 8978 ft 242 kts 163°
2026-05-06 11:38 35.93300 140.91965 8835 ft 239 kts 187°
2026-05-06 11:39 35.91780 140.91394 8724 ft 226 kts 219°
2026-05-06 11:39 35.91052 140.90485 8658 ft 221 kts 240°
2026-05-06 11:39 35.90690 140.88042 8519 ft 225 kts 275°
2026-05-06 11:39 35.90768 140.87413 8480 ft 226 kts 276°
2026-05-06 11:40 35.91443 140.81969 7995 ft 226 kts 275°
2026-05-06 11:40 35.91677 140.80039 7838 ft 226 kts 276°
2026-05-06 11:40 35.91909 140.78128 7687 ft 226 kts 275°
2026-05-06 11:41 35.92142 140.76213 7535 ft 227 kts 275°
2026-05-06 11:41 35.92375 140.74295 7390 ft 224 kts 275°
2026-05-06 11:41 35.92604 140.72406 7249 ft 225 kts 275°
2026-05-06 11:41 35.92835 140.70493 7130 ft 226 kts 275°
2026-05-06 11:42 35.93066 140.68588 7016 ft 223 kts 275°
2026-05-06 11:42 35.93263 140.66698 6923 ft 221 kts 265°
2026-05-06 11:42 35.92844 140.64960 6927 ft 213 kts 232°
2026-05-06 11:42 35.91666 140.63860 6968 ft 221 kts 199°
2026-05-06 11:43 35.90124 140.63477 6988 ft 226 kts 195°
2026-05-06 11:43 35.88631 140.62872 6946 ft 225 kts 205°
2026-05-06 11:43 35.87217 140.62061 6786 ft 220 kts 208°
2026-05-06 11:44 35.85134 140.59569 6518 ft 217 kts 256°
2026-05-06 11:44 35.85236 140.57713 6473 ft 225 kts 290°
2026-05-06 11:44 35.86166 140.56107 6421 ft 236 kts 310°
2026-05-06 11:44 35.87285 140.54601 6304 ft 237 kts 307°
2026-05-06 11:45 35.88344 140.53072 6191 ft 231 kts 306°
2026-05-06 11:45 35.89370 140.51562 6109 ft 231 kts 306°
2026-05-06 11:45 35.90392 140.50037 6051 ft 231 kts 306°
2026-05-06 11:45 35.90740 140.49513 6037 ft 231 kts 306°
2026-05-06 11:46 35.92436 140.46951 5979 ft 232 kts 305°
2026-05-06 11:46 35.93454 140.45407 5976 ft 231 kts 305°
2026-05-06 11:46 35.94467 140.43866 5980 ft 231 kts 305°
2026-05-06 11:46 35.95475 140.42331 5979 ft 231 kts 305°
2026-05-06 11:47 35.96473 140.40765 5958 ft 232 kts 303°
2026-05-06 11:47 35.97455 140.39130 5768 ft 237 kts 303°
2026-05-06 11:47 35.98430 140.37520 5573 ft 234 kts 303°
2026-05-06 11:47 35.99395 140.35924 5397 ft 232 kts 302°
2026-05-06 11:48 36.00319 140.34303 5184 ft 228 kts 291°
2026-05-06 11:48 36.00616 140.32433 5018 ft 219 kts 258°
2026-05-06 11:48 36.00114 140.30699 4689 ft 219 kts 239°
2026-05-06 11:48 35.99396 140.29025 4291 ft 222 kts 239°
2026-05-06 11:49 35.98660 140.27353 3858 ft 222 kts 238°
2026-05-06 11:49 35.97882 140.25693 3409 ft 222 kts 231°
2026-05-06 11:49 35.96730 140.24532 3023 ft 215 kts 197°
2026-05-06 11:49 35.95312 140.24265 2913 ft 200 kts 172°
2026-05-06 11:50 35.94075 140.24908 2836 ft 182 kts 151°
2026-05-06 11:50 35.93035 140.25665 2780 ft 167 kts 154°
2026-05-06 11:50 35.92049 140.26355 2779 ft 158 kts 154°
2026-05-06 11:50 35.91085 140.27035 2794 ft 165 kts 154°
2026-05-06 11:51 35.90072 140.27754 2794 ft 169 kts 154°
2026-05-06 11:51 35.89094 140.28456 2704 ft 156 kts 154°
2026-05-06 11:51 35.88173 140.29117 2482 ft 149 kts 153°
2026-05-06 11:51 35.87310 140.29739 2322 ft 134 kts 154°
2026-05-06 11:52 35.86530 140.30302 2197 ft 127 kts 154°
2026-05-06 11:52 35.85737 140.30867 2065 ft 136 kts 153°
2026-05-06 11:52 35.84897 140.31471 1881 ft 138 kts 153°
2026-05-06 11:52 35.84084 140.32057 1679 ft 135 kts 152°
2026-05-06 11:53 35.83279 140.32637 1496 ft 134 kts 152°
2026-05-06 11:53 35.82459 140.33228 1301 ft 135 kts 153°
2026-05-06 11:53 35.81637 140.33818 1126 ft 138 kts 151°
2026-05-06 11:53 35.80798 140.34415 911 ft 140 kts 151°
2026-05-06 11:54 35.79955 140.35001 712 ft 137 kts 149°
2026-05-06 11:54 35.79146 140.35603 541 ft 136 kts 148°
2026-05-06 11:54 35.78332 140.36189 323 ft 135 kts 149°
2026-05-06 11:54 35.77520 140.36769 179 ft 134 kts 149°
2026-05-06 11:55 35.76746 140.37334 134 ft 116 kts 149°
2026-05-06 11:55 35.76191 140.37732 137 ft 66 kts 149°
2026-05-06 11:55 35.75835 140.37990 139 ft 47 kts 148°
2026-05-06 11:55 35.75696 140.38092 140 ft 16 kts 149°
2026-05-06 11:56 35.75604 140.38173 141 ft 15 kts 135°
2026-05-06 11:56 35.75541 140.38263 142 ft 11 kts 127°
2026-05-06 11:56 35.75499 140.38344 141 ft 10 kts 120°
2026-05-06 11:56 35.75468 140.38414 141 ft 9 kts 114°
2026-05-06 11:57 35.75472 140.38486 139 ft 8 kts 63°
2026-05-06 11:57 35.75501 140.38551 139 ft 8 kts 58°
2026-05-06 11:57 35.75540 140.38574 139 ft 5 kts 351°
2026-05-06 11:57 35.75601 140.38544 139 ft 15 kts 330°
2026-05-06 11:58 35.75705 140.38467 139 ft 14 kts 330°
2026-05-06 11:58 35.75756 140.38483 139 ft 7 kts 43°
2026-05-06 11:58 35.75793 140.38504 139 ft 5 kts
2026-05-06 11:58 35.75836 140.38515 139 ft 4 kts 39°
2026-05-06 11:59 35.75855 140.38542 139 ft 4 kts 53°
2026-05-06 11:59 35.75871 140.38576 139 ft 4 kts 58°
2026-05-06 11:59 35.75877 140.38590 139 ft 0 kts 59°
2026-05-06 11:59 35.75878 140.38591 139 ft 0 kts 59°